sat.trackr.live / text

‹ back to catalog

PUNCH-WFI 1 (SMEX 15B)

NORAD 63179 · 2025-047B

PAYLOAD ACTIVE UNKNOWN

§ Identity

Operator
Country
US
Launch date
2025-03-12
Launch site
AFWTR
Launch vehicle
Mass (kg)
RCS (m²)

External: N2YO · Heavens-Above · Gunter

§ Orbital elements

Epoch: 2026-09-22T18:45:49.241088Z

Period
97.66 min
Inclination
97.9603°
Eccentricity
0.0008027
Mean motion
14.74433205 rev/d
Perigee alt
641.3 km
Apogee alt
652.6 km
Semi-major
7,025.1 km
B*
5.6333e-5
RAAN
89.3812°
Arg perigee
217.9562°
Mean anomaly
142.1082°
Rev number
8,244

§ Raw data

PUNCH-WFI 1 (SMEX 15B)1 63179U 25047B   26265.78181992  .00000324  00000+0  56333-4 0  99922 63179  97.9603  89.3812 0008027 217.9562 142.1082 14.74433205 82441

JSON: /api/v1/satellites/63179 · /tle

For live sub-satellite position, see the globe view (requires WebGL).

§ Visibility from observer

Set your observer location to see the next 7 days of passes ≥ 10°. The values pass through the URL so the page stays shareable.

No JS? Fill the form by hand. The geolocation button needs JavaScript.